Location: Newark
(7.0858°N, 171.3717°E)
Time: 00:37:40
(UTC+00:00)

Vanguard 3 - Pass Details

Date: 30 November 2020
Orbit: 508 x 3262 km, 33.3° (Epoch: 19 January)

Event Time Altitude Azimuth Distance (km) Brightness Sun altitude
Exits shadow 16:09:55 65° 276° (W) 1,970 8.6 -33.6°
Maximum altitude 16:11:49 78° 215° (SW) 1,999 8.8 -33.1°
Drops below altitude 10° 16:28:03 10° 130° (SE) 5,711 12.3 -29.4°
Sets 16:33:11 0° 129° (SE) 6,986 13.0 -28.2°
